Location: Rancho Del Sol Observatory
(38.7214°N, 120.6350°W)
Time: 22:13:27
(UTC-08:00)

Courier 1B Rocket - Pass Details

Date: 28 January 2020
Orbit: 920 x 1202 km, 28.2° (Epoch: 27 February)

Event Time Altitude Azimuth Distance (km) Brightness Sun altitude
Rises 14:18:17 0° 261° (W) 3,871 8.7 26.3°
Reaches altitude 10° 14:21:39 10° 249° (WSW) 2,861 8.5 25.9°
Maximum altitude 14:26:59 24° 198° (SSW) 1,953 8.6 25.3°
Drops below altitude 10° 14:32:03 10° 147° (SSE) 2,704 7.7 24.8°
Sets 14:35:09 0° 134° (SE) 3,612 8.1 24.4°
